Weather History for LEBZ - July, 2013

Change the Weather History Date:

Wednesday, July 17, 2013

  Actual Average Record
Temperature  
Mean Temperature 78 °F -  
Max Temperature 97 °F - - ()
Min Temperature 60 °F - - ()
Cooling Degree Days 14    
Growing Degree Days 28 (Base 50)    
Moisture  
Dew Point 50 °F    
Average Humidity 37    
Maximum Humidity 82    
Minimum Humidity 12    
Precipitation  
Precipitation 0.00 in 0.01 in - ()
Sea Level Pressure  
Sea Level Pressure 30.07 in    
Wind  
Wind Speed 5 mph ()    
Max Wind Speed 15 mph    
Max Gust Speed -    
Visibility 11.5 miles    
Events      
T = Trace of Precipitation, MM = Missing Value Source: Averaged Metar Reports

Daily Weather History Graph

Daily Weather History Graph

Search for Another Location

Airport or City:

Trip Planner

Search our weather history database for the weather conditions in past years. The results will help you decide how hot, cold, wet, or windy it might be!

Date:

Astronomy

Jul. 17, 2013 Rise Set
Actual Time 7:15 AM CEST 9:50 PM CEST
Civil Twilight 6:44 AM CEST 10:21 PM CEST
Nautical Twilight 6:06 AM CEST 11:00 PM CEST
Astronomical Twilight 5:23 AM CEST 11:42 PM CEST
Moon 4:25 PM CEST (7/17) 2:12 AM CEST (7/17)
Length of Visible Light 15h 36m
Length of Day
14h 34m
Waxing Gibbous, 64% of the Moon is Illuminated
Jul 17
Waxing Gibbous
Jul 22
Full
Jul 29
Last Quarter
Aug 6
New
Aug 14
First Quarter

Hourly Weather History & Observations

Time (CEST) Temp. Heat Index Dew Point Humidity Pressure Visibility Wind Dir Wind Speed Gust Speed Precip Events Conditions
6:00 AM 64.4 °F - 55.4 °F 73% 30.09 in - WSW 3.5 mph - N/A   Clear
7:00 AM 64.4 °F - 55.4 °F 73% 30.09 in - Variable 2.3 mph - N/A   Clear
8:00 AM 64 °F - 56 °F 70% 30.11 in 9 mi NNW 3.5 mph - -  
8:00 AM 60.8 °F - 55.4 °F 82% 30.09 in - NNE 3.5 mph - N/A   Clear
9:00 AM 68.0 °F - 59.0 °F 73% 30.12 in - Calm Calm - N/A   Clear
10:00 AM 71.6 °F - 59.0 °F 64% 30.12 in - Variable 1.2 mph - N/A   Clear
11:00 AM 77 °F - 64 °F 54% 30.10 in 9 mi Calm Calm - -  
11:00 AM 77.0 °F - 59.0 °F 54% 30.12 in - WSW 1.2 mph - N/A   Clear
12:00 PM 82.4 °F 82.5 °F 59.0 °F 45% 30.12 in - WNW 3.5 mph - N/A   Clear
1:00 PM 84.2 °F 83.0 °F 55.4 °F 37% 30.09 in - North 5.8 mph - N/A   Clear
2:00 PM 90 °F - 60 °F 26% 30.06 in 12 mi WNW 8.9 mph - -  
2:00 PM 91.4 °F - 46.4 °F 21% 30.09 in - NNW 6.9 mph - N/A   Clear
3:00 PM 95.0 °F - 46.4 °F 19% 30.06 in - West 8.1 mph - N/A   Clear
4:00 PM 96.8 °F - 41.0 °F 15% 30.06 in - West 12.7 mph - N/A   Clear
4:20 PM 96.8 °F - 39.2 °F 14% 30.06 in - SW 9.2 mph - N/A   Clear
4:32 PM 96.8 °F - 39.2 °F 14% 30.04 in - West 11.5 mph - N/A   Clear
5:00 PM 98.6 °F - 41.0 °F 14% 30.04 in - West 15.0 mph - N/A   Clear
6:00 PM 96.8 °F - 37.4 °F 13% 30.04 in - WNW 12.7 mph - N/A   Clear
7:00 PM 96.8 °F - 35.6 °F 12% 30.01 in - WNW 11.5 mph - N/A   Clear
8:00 PM 96 °F - 53 °F 15% 29.97 in 16 mi West 10.4 mph - -  
8:00 PM 95.0 °F - 35.6 °F 12% 30.01 in - West 10.4 mph - N/A   Clear
9:00 PM 89.6 °F - 42.8 °F 20% 30.01 in - NW 9.2 mph - N/A   Clear
10:00 PM 82.4 °F - 50.0 °F 32% 30.04 in - WNW 4.6 mph - N/A   Clear